Time,TemperatureF,DewpointF,PressureIn,WindDirection,WindDirectionDegrees,WindSpeedMPH,WindSpeedGustMPH,Humidity,HourlyPrecipIn,Conditions,Clouds,dailyrainin,SoftwareType,DateUTC
2017-05-28 00:01:00,51.9,50.0,29.92,NNE,23,0.0,-999.0,93,0.00,,,0.00,,2017-05-28 04:01:00,
2017-05-28 00:07:00,51.8,50.0,29.92,West,270,0.0,-999.0,93,0.00,,,0.00,,2017-05-28 04:07:00,
2017-05-28 00:12:00,51.5,49.0,29.92,West,270,0.0,-999.0,93,0.00,,,0.00,,2017-05-28 04:12:00,
2017-05-28 00:19:00,51.4,49.0,29.92,NNE,23,0.0,-999.0,93,0.00,,,0.00,,2017-05-28 04:19:00,
2017-05-28 00:24:00,51.4,49.0,29.92,WNW,293,0.0,-999.0,93,0.00,,,0.00,,2017-05-28 04:24:00,
2017-05-28 00:30:00,51.0,49.0,29.92,WNW,293,0.0,-999.0,93,0.00,,,0.00,,2017-05-28 04:30:00,
2017-05-28 00:36:00,51.0,49.0,29.91,NW,315,0.0,-999.0,93,0.00,,,0.00,,2017-05-28 04:36:00,
2017-05-28 00:41:00,51.0,49.0,29.91,West,270,0.0,-999.0,93,0.00,,,0.00,,2017-05-28 04:41:00,
2017-05-28 00:46:00,51.0,49.0,29.91,West,270,0.0,-999.0,93,0.00,,,0.00,,2017-05-28 04:46:00,
2017-05-28 00:52:00,51.0,49.0,29.91,WNW,293,0.0,-999.0,95,0.00,,,0.00,,2017-05-28 04:52:00,
2017-05-28 00:57:00,50.9,49.0,29.91,NW,315,0.0,-999.0,95,0.00,,,0.00,,2017-05-28 04:57:00,
2017-05-28 01:03:00,50.9,49.0,29.90,NNW,338,0.0,-999.0,95,0.00,,,0.00,,2017-05-28 05:03:00,
2017-05-28 01:08:00,50.9,49.0,29.90,West,270,0.0,-999.0,95,0.00,,,0.00,,2017-05-28 05:08:00,
2017-05-28 01:14:00,50.9,49.0,29.89,West,270,0.0,-999.0,95,0.00,,,0.00,,2017-05-28 05:14:00,
2017-05-28 01:19:00,50.9,49.0,29.90,WNW,293,1.0,-999.0,95,0.00,,,0.00,,2017-05-28 05:19:00,
2017-05-28 01:25:00,50.9,49.0,29.90,South,180,0.0,-999.0,95,0.00,,,0.00,,2017-05-28 05:25:00,
2017-05-28 01:31:00,50.9,49.0,29.89,WNW,293,0.0,-999.0,95,0.00,,,0.00,,2017-05-28 05:31:00,
2017-05-28 01:37:00,50.9,49.0,29.90,West,270,0.0,-999.0,95,0.00,,,0.00,,2017-05-28 05:37:00,
2017-05-28 01:42:00,50.9,49.0,29.90,SW,225,0.0,-999.0,95,0.00,,,0.00,,2017-05-28 05:42:00,
2017-05-28 01:48:00,50.9,49.0,29.90,WNW,293,0.0,-999.0,95,0.00,,,0.00,,2017-05-28 05:48:00,
2017-05-28 01:53:00,50.9,49.0,29.90,West,270,0.0,-999.0,95,0.00,,,0.00,,2017-05-28 05:53:00,
2017-05-28 01:59:00,50.9,49.0,29.90,West,270,0.0,-999.0,95,0.00,,,0.00,,2017-05-28 05:59:00,
2017-05-28 02:04:00,50.9,49.0,29.90,North,0,0.0,-999.0,95,0.00,,,0.00,,2017-05-28 06:04:00,
2017-05-28 02:10:00,50.9,49.0,29.90,West,270,0.0,-999.0,95,0.00,,,0.00,,2017-05-28 06:10:00,
2017-05-28 02:15:00,50.7,49.0,29.90,West,270,0.0,-999.0,95,0.00,,,0.00,,2017-05-28 06:15:00,
2017-05-28 02:21:00,50.7,49.0,29.91,SSW,203,0.0,-999.0,95,0.00,,,0.00,,2017-05-28 06:21:00,
2017-05-28 02:26:00,50.7,49.0,29.91,WNW,293,0.0,-999.0,95,0.00,,,0.00,,2017-05-28 06:26:00,
2017-05-28 02:32:00,50.7,49.0,29.91,NNW,338,0.0,-999.0,95,0.00,,,0.00,,2017-05-28 06:32:00,
2017-05-28 02:38:00,50.7,49.0,29.91,North,0,0.0,-999.0,95,0.00,,,0.00,,2017-05-28 06:38:00,
2017-05-28 02:43:00,50.7,49.0,29.91,North,0,0.0,-999.0,95,0.00,,,0.00,,2017-05-28 06:43:00,
2017-05-28 02:49:00,50.7,49.0,29.91,NE,45,0.0,-999.0,95,0.00,,,0.00,,2017-05-28 06:49:00,
2017-05-28 02:54:00,50.7,49.0,29.91,WNW,293,0.0,-999.0,95,0.00,,,0.00,,2017-05-28 06:54:00,
2017-05-28 03:00:00,50.7,49.0,29.91,West,270,0.0,-999.0,95,0.00,,,0.00,,2017-05-28 07:00:00,
2017-05-28 03:05:00,50.7,49.0,29.91,NW,315,0.0,-999.0,95,0.00,,,0.00,,2017-05-28 07:05:00,
2017-05-28 03:11:00,50.7,49.0,29.91,NW,315,0.0,-999.0,95,0.00,,,0.00,,2017-05-28 07:11:00,
2017-05-28 03:16:00,50.9,49.0,29.91,SW,225,0.0,-999.0,95,0.00,,,0.00,,2017-05-28 07:16:00,
2017-05-28 03:22:00,50.7,49.0,29.90,NW,315,0.0,-999.0,95,0.00,,,0.00,,2017-05-28 07:22:00,
2017-05-28 03:28:00,50.7,49.0,29.90,WNW,293,0.0,-999.0,95,0.00,,,0.00,,2017-05-28 07:28:00,
2017-05-28 03:33:00,50.7,49.0,29.89,WNW,293,0.0,-999.0,95,0.00,,,0.00,,2017-05-28 07:33:00,
2017-05-28 03:39:00,50.7,49.0,29.89,West,270,1.0,-999.0,95,0.00,,,0.00,,2017-05-28 07:39:00,
2017-05-28 03:50:00,50.7,49.0,29.91,West,270,0.0,-999.0,96,0.00,,,0.00,,2017-05-28 07:50:00,
2017-05-28 03:56:00,50.7,49.0,29.91,East,90,0.0,-999.0,96,0.00,,,0.00,,2017-05-28 07:56:00,
2017-05-28 04:01:00,50.7,49.0,29.91,ESE,113,0.0,-999.0,96,0.00,,,0.00,,2017-05-28 08:01:00,
2017-05-28 04:07:00,50.7,49.0,29.90,WNW,293,0.0,-999.0,96,0.00,,,0.00,,2017-05-28 08:07:00,
2017-05-28 04:12:00,50.5,49.0,29.89,WNW,293,0.0,-999.0,96,0.00,,,0.00,,2017-05-28 08:12:00,
2017-05-28 04:15:00,50.5,49.0,29.89,NW,315,0.0,-999.0,96,0.00,,,0.00,,2017-05-28 08:15:00,
2017-05-28 04:20:00,50.5,49.0,29.89,NNW,338,0.0,-999.0,96,0.00,,,0.00,,2017-05-28 08:20:00,
2017-05-28 04:25:00,50.5,49.0,29.89,WNW,293,0.0,-999.0,96,0.00,,,0.00,,2017-05-28 08:25:00,
2017-05-28 04:31:00,50.5,49.0,29.90,NNW,338,0.0,-999.0,96,0.00,,,0.00,,2017-05-28 08:31:00,
2017-05-28 04:36:00,50.5,49.0,29.90,NE,45,0.0,-999.0,96,0.00,,,0.00,,2017-05-28 08:36:00,
2017-05-28 04:42:00,50.5,49.0,29.89,NE,45,0.0,-999.0,96,0.00,,,0.00,,2017-05-28 08:42:00,
2017-05-28 04:47:00,50.5,49.0,29.89,NNW,338,0.0,-999.0,96,0.00,,,0.00,,2017-05-28 08:47:00,
2017-05-28 04:53:00,50.5,49.0,29.90,NNW,338,0.0,-999.0,96,0.00,,,0.00,,2017-05-28 08:53:00,
2017-05-28 04:58:00,50.5,49.0,29.90,NNW,338,0.0,-999.0,96,0.00,,,0.00,,2017-05-28 08:58:00,
2017-05-28 05:04:00,50.5,49.0,29.90,East,90,0.0,-999.0,96,0.00,,,0.00,,2017-05-28 09:04:00,
2017-05-28 05:09:00,50.5,49.0,29.90,NW,315,0.0,-999.0,96,0.00,,,0.00,,2017-05-28 09:09:00,
2017-05-28 05:15:00,50.5,49.0,29.91,NE,45,0.0,-999.0,96,0.00,,,0.00,,2017-05-28 09:15:00,
2017-05-28 05:20:00,50.5,49.0,29.91,NE,45,0.0,-999.0,96,0.00,,,0.00,,2017-05-28 09:20:00,
2017-05-28 05:26:00,50.5,49.0,29.90,SSE,158,0.0,-999.0,96,0.00,,,0.00,,2017-05-28 09:26:00,
2017-05-28 05:31:00,50.5,49.0,29.90,NNW,338,0.0,-999.0,96,0.00,,,0.00,,2017-05-28 09:31:00,
2017-05-28 05:37:00,50.5,49.0,29.90,WNW,293,0.0,-999.0,96,0.00,,,0.00,,2017-05-28 09:37:00,
2017-05-28 05:42:00,50.5,49.0,29.91,WNW,293,0.0,-999.0,96,0.00,,,0.00,,2017-05-28 09:42:00,
2017-05-28 05:48:00,50.5,49.0,29.91,ESE,113,0.0,-999.0,96,0.00,,,0.00,,2017-05-28 09:48:00,
2017-05-28 05:53:00,50.5,49.0,29.91,East,90,0.0,-999.0,96,0.00,,,0.00,,2017-05-28 09:53:00,
2017-05-28 06:04:00,50.5,49.0,29.91,WNW,293,0.0,-999.0,96,0.00,,,0.00,,2017-05-28 10:04:00,
2017-05-28 06:10:00,50.5,49.0,29.92,West,270,0.0,-999.0,96,0.00,,,0.00,,2017-05-28 10:10:00,
2017-05-28 06:15:00,50.5,49.0,29.93,NNW,338,0.0,-999.0,96,0.00,,,0.00,,2017-05-28 10:15:00,
2017-05-28 06:20:00,50.7,49.0,29.93,WNW,293,0.0,-999.0,96,0.00,,,0.00,,2017-05-28 10:20:00,
2017-05-28 06:26:00,50.7,49.0,29.93,NW,315,0.0,-999.0,96,0.00,,,0.00,,2017-05-28 10:26:00,
2017-05-28 06:31:00,50.7,49.0,29.93,East,90,0.0,-999.0,96,0.00,,,0.00,,2017-05-28 10:31:00,
2017-05-28 06:37:00,50.9,49.0,29.93,West,270,0.0,-999.0,96,0.00,,,0.00,,2017-05-28 10:37:00,
2017-05-28 06:42:00,50.9,49.0,29.93,NW,315,0.0,-999.0,96,0.00,,,0.00,,2017-05-28 10:42:00,
2017-05-28 06:48:00,51.0,49.0,29.93,WNW,293,0.0,-999.0,96,0.00,,,0.00,,2017-05-28 10:48:00,
2017-05-28 06:54:00,51.3,50.0,29.94,ESE,113,0.0,-999.0,96,0.00,,,0.00,,2017-05-28 10:54:00,
2017-05-28 06:59:00,51.4,50.0,29.94,WNW,293,0.0,-999.0,96,0.00,,,0.00,,2017-05-28 10:59:00,
2017-05-28 07:05:00,51.5,50.0,29.94,NW,315,0.0,-999.0,96,0.00,,,0.00,,2017-05-28 11:05:00,
2017-05-28 07:10:00,51.9,50.0,29.94,WNW,293,0.0,-999.0,96,0.00,,,0.00,,2017-05-28 11:10:00,
2017-05-28 07:11:00,51.9,50.0,29.94,WNW,293,0.0,-999.0,96,0.00,,,0.00,,2017-05-28 11:11:00,
2017-05-28 07:16:00,52.2,51.0,29.94,NW,315,0.0,-999.0,96,0.00,,,0.00,,2017-05-28 11:16:00,
2017-05-28 07:22:00,52.3,51.0,29.94,North,0,0.0,-999.0,96,0.00,,,0.00,,2017-05-28 11:22:00,
2017-05-28 07:27:00,52.5,51.0,29.95,NW,315,0.0,-999.0,95,0.00,,,0.00,,2017-05-28 11:27:00,
2017-05-28 07:33:00,52.8,51.0,29.95,NW,315,0.0,-999.0,93,0.00,,,0.00,,2017-05-28 11:33:00,
2017-05-28 07:38:00,53.4,51.0,29.95,ESE,113,0.0,-999.0,93,0.00,,,0.00,,2017-05-28 11:38:00,
2017-05-28 07:44:00,53.8,52.0,29.95,ESE,113,0.0,-999.0,93,0.00,,,0.00,,2017-05-28 11:44:00,
2017-05-28 07:49:00,54.0,52.0,29.95,ESE,113,0.0,-999.0,93,0.00,,,0.00,,2017-05-28 11:49:00,
2017-05-28 07:55:00,54.4,52.0,29.95,ESE,113,0.0,-999.0,93,0.00,,,0.00,,2017-05-28 11:55:00,
2017-05-28 08:01:00,55.0,53.0,29.95,ESE,113,0.0,-999.0,93,0.00,,,0.00,,2017-05-28 12:01:00,
2017-05-28 08:07:00,55.3,52.0,29.95,ESE,113,0.0,-999.0,91,0.00,,,0.00,,2017-05-28 12:07:00,
2017-05-28 08:12:00,55.7,53.0,29.94,ESE,113,1.0,-999.0,91,0.00,,,0.00,,2017-05-28 12:12:00,
2017-05-28 08:18:00,56.3,53.0,29.94,ESE,113,0.0,-999.0,91,0.00,,,0.00,,2017-05-28 12:18:00,
2017-05-28 08:24:00,56.7,53.0,29.94,ESE,113,0.0,-999.0,90,0.00,,,0.00,,2017-05-28 12:24:00,
2017-05-28 08:29:00,56.9,53.0,29.94,ESE,113,1.0,-999.0,88,0.00,,,0.00,,2017-05-28 12:29:00,
2017-05-28 08:31:00,57.2,53.0,29.94,SE,135,1.0,-999.0,88,0.00,,,0.00,,2017-05-28 12:31:00,
2017-05-28 08:36:00,57.8,54.0,29.95,ESE,113,0.0,-999.0,88,0.00,,,0.00,,2017-05-28 12:36:00,
2017-05-28 08:42:00,58.8,54.0,29.94,ESE,113,0.0,-999.0,86,0.00,,,0.00,,2017-05-28 12:42:00,
2017-05-28 08:47:00,59.7,55.0,29.94,ESE,113,1.0,-999.0,85,0.00,,,0.00,,2017-05-28 12:47:00,
2017-05-28 08:53:00,60.5,55.0,29.94,ESE,113,0.0,-999.0,83,0.00,,,0.00,,2017-05-28 12:53:00,
2017-05-28 08:58:00,61.5,56.0,29.94,SE,135,2.0,-999.0,83,0.00,,,0.00,,2017-05-28 12:58:00,
2017-05-28 09:04:00,62.2,55.0,29.94,East,90,1.0,-999.0,80,0.00,,,0.00,,2017-05-28 13:04:00,
2017-05-28 09:09:00,62.5,55.0,29.94,ESE,113,2.0,-999.0,78,0.00,,,0.00,,2017-05-28 13:09:00,
2017-05-28 09:14:00,61.5,53.0,29.93,ESE,113,1.0,-999.0,74,0.00,,,0.00,,2017-05-28 13:14:00,
2017-05-28 09:20:00,62.4,54.0,29.93,ESE,113,1.0,-999.0,74,0.00,,,0.00,,2017-05-28 13:20:00,
2017-05-28 09:25:00,63.9,53.0,29.93,ESE,113,2.0,-999.0,70,0.00,,,0.00,,2017-05-28 13:25:00,
2017-05-28 09:31:00,65.0,53.0,29.93,SE,135,2.0,-999.0,66,0.00,,,0.00,,2017-05-28 13:31:00,
2017-05-28 09:36:00,63.4,51.0,29.92,East,90,0.0,-999.0,65,0.00,,,0.00,,2017-05-28 13:36:00,
2017-05-28 09:42:00,63.4,51.0,29.92,ESE,113,3.0,-999.0,65,0.00,,,0.00,,2017-05-28 13:42:00,
2017-05-28 09:48:00,63.2,52.0,29.93,SE,135,3.0,-999.0,68,0.00,,,0.00,,2017-05-28 13:48:00,
2017-05-28 09:59:00,63.2,51.0,29.93,ESE,113,2.0,-999.0,65,0.00,,,0.00,,2017-05-28 13:59:00,
2017-05-28 10:04:00,64.4,52.0,29.93,South,180,2.0,-999.0,65,0.00,,,0.00,,2017-05-28 14:04:00,
2017-05-28 10:10:00,63.9,53.0,29.93,SE,135,2.0,-999.0,69,0.00,,,0.00,,2017-05-28 14:10:00,
2017-05-28 10:15:00,63.6,51.0,29.93,SSE,158,0.0,-999.0,65,0.00,,,0.00,,2017-05-28 14:15:00,
2017-05-28 10:20:00,63.9,53.0,29.93,ESE,113,1.0,-999.0,70,0.00,,,0.00,,2017-05-28 14:20:00,
2017-05-28 10:27:00,64.4,54.0,29.92,SE,135,2.0,-999.0,70,0.00,,,0.00,,2017-05-28 14:27:00,
2017-05-28 10:32:00,63.9,53.0,29.92,West,270,2.0,-999.0,69,0.00,,,0.00,,2017-05-28 14:32:00,
2017-05-28 10:38:00,63.6,52.0,29.92,North,0,1.0,-999.0,66,0.00,,,0.00,,2017-05-28 14:38:00,
2017-05-28 10:43:00,63.0,52.0,29.92,East,90,1.0,-999.0,69,0.00,,,0.00,,2017-05-28 14:43:00,
2017-05-28 10:48:00,63.0,52.0,29.93,NE,45,1.0,-999.0,68,0.00,,,0.00,,2017-05-28 14:48:00,
2017-05-28 10:54:00,63.0,52.0,29.93,ESE,113,2.0,-999.0,69,0.00,,,0.00,,2017-05-28 14:54:00,
2017-05-28 10:59:00,63.2,52.0,29.93,East,90,0.0,-999.0,69,0.00,,,0.00,,2017-05-28 14:59:00,
2017-05-28 11:05:00,63.0,51.0,29.93,WNW,293,1.0,-999.0,66,0.00,,,0.00,,2017-05-28 15:05:00,
2017-05-28 11:10:00,63.0,53.0,29.92,East,90,1.0,-999.0,70,0.00,,,0.00,,2017-05-28 15:10:00,
2017-05-28 11:16:00,62.7,52.0,29.93,South,180,1.0,-999.0,70,0.00,,,0.00,,2017-05-28 15:16:00,
2017-05-28 11:21:00,62.7,53.0,29.93,SE,135,3.0,-999.0,70,0.00,,,0.00,,2017-05-28 15:21:00,
2017-05-28 11:27:00,63.0,53.0,29.93,SSE,158,2.0,-999.0,70,0.00,,,0.00,,2017-05-28 15:27:00,
2017-05-28 11:32:00,63.0,54.0,29.93,East,90,0.0,-999.0,73,0.00,,,0.00,,2017-05-28 15:32:00,
2017-05-28 11:38:00,63.2,53.0,29.93,SE,135,1.0,-999.0,70,0.00,,,0.00,,2017-05-28 15:38:00,
2017-05-28 11:43:00,63.4,53.0,29.93,SE,135,2.0,-999.0,69,0.00,,,0.00,,2017-05-28 15:43:00,
2017-05-28 11:49:00,64.9,53.0,29.94,NE,45,2.0,-999.0,65,0.00,,,0.00,,2017-05-28 15:49:00,
2017-05-28 11:54:00,65.6,54.0,29.93,East,90,0.0,-999.0,66,0.00,,,0.00,,2017-05-28 15:54:00,
2017-05-28 12:00:00,65.6,55.0,29.93,SE,135,0.0,-999.0,70,0.00,,,0.00,,2017-05-28 16:00:00,
2017-05-28 12:05:00,64.6,53.0,29.93,ESE,113,2.0,-999.0,68,0.00,,,0.00,,2017-05-28 16:05:00,
2017-05-28 12:11:00,63.6,54.0,29.93,SE,135,1.0,-999.0,70,0.00,,,0.00,,2017-05-28 16:11:00,
2017-05-28 12:16:00,63.6,53.0,29.93,ESE,113,2.0,-999.0,69,0.00,,,0.00,,2017-05-28 16:16:00,
2017-05-28 12:22:00,63.9,54.0,29.94,East,90,0.0,-999.0,70,0.00,,,0.00,,2017-05-28 16:22:00,
2017-05-28 12:28:00,65.5,54.0,29.94,ESE,113,0.0,-999.0,68,0.00,,,0.00,,2017-05-28 16:28:00,
2017-05-28 12:33:00,65.6,55.0,29.94,ESE,113,0.0,-999.0,70,0.00,,,0.00,,2017-05-28 16:33:00,
2017-05-28 12:39:00,65.2,54.0,29.94,NNE,23,0.0,-999.0,66,0.00,,,0.00,,2017-05-28 16:39:00,
2017-05-28 12:44:00,65.0,55.0,29.95,ESE,113,0.0,-999.0,70,0.00,,,0.00,,2017-05-28 16:44:00,
2017-05-28 12:50:00,65.0,54.0,29.95,ESE,113,1.0,-999.0,69,0.00,,,0.00,,2017-05-28 16:50:00,
2017-05-28 12:55:00,64.9,55.0,29.95,SW,225,0.0,-999.0,70,0.00,,,0.00,,2017-05-28 16:55:00,
2017-05-28 13:00:00,65.2,55.0,29.94,ESE,113,0.0,-999.0,70,0.00,,,0.00,,2017-05-28 17:00:00,
2017-05-28 13:06:00,64.9,54.0,29.94,ESE,113,0.0,-999.0,68,0.00,,,0.00,,2017-05-28 17:06:00,
2017-05-28 13:11:00,64.8,54.0,29.94,SSE,158,0.0,-999.0,69,0.00,,,0.00,,2017-05-28 17:11:00,
2017-05-28 13:17:00,64.9,54.0,29.94,SE,135,1.0,-999.0,70,0.00,,,0.00,,2017-05-28 17:17:00,
2017-05-28 13:23:00,65.0,55.0,29.94,East,90,0.0,-999.0,70,0.00,,,0.00,,2017-05-28 17:23:00,
2017-05-28 13:28:00,65.0,55.0,29.94,SE,135,0.0,-999.0,71,0.00,,,0.00,,2017-05-28 17:28:00,
2017-05-28 13:35:00,65.2,55.0,29.94,West,270,0.0,-999.0,70,0.00,,,0.00,,2017-05-28 17:35:00,
2017-05-28 13:40:00,65.2,56.0,29.94,SE,135,0.0,-999.0,71,0.00,,,0.00,,2017-05-28 17:40:00,
2017-05-28 13:45:00,64.9,55.0,29.94,ESE,113,0.0,-999.0,71,0.00,,,0.00,,2017-05-28 17:45:00,
2017-05-28 13:51:00,64.9,54.0,29.94,East,90,0.0,-999.0,70,0.00,,,0.00,,2017-05-28 17:51:00,
2017-05-28 13:56:00,65.0,55.0,29.95,NE,45,0.0,-999.0,70,0.00,,,0.00,,2017-05-28 17:56:00,
2017-05-28 14:02:00,64.9,56.0,29.95,ESE,113,1.0,-999.0,73,0.00,,,0.00,,2017-05-28 18:02:00,
2017-05-28 14:07:00,65.0,55.0,29.95,East,90,1.0,-999.0,70,0.00,,,0.00,,2017-05-28 18:07:00,
2017-05-28 14:13:00,65.2,55.0,29.94,ENE,68,2.0,-999.0,70,0.00,,,0.00,,2017-05-28 18:13:00,
2017-05-28 14:18:00,65.2,56.0,29.95,SE,135,0.0,-999.0,71,0.00,,,0.00,,2017-05-28 18:18:00,
2017-05-28 14:24:00,65.0,55.0,29.94,WSW,248,0.0,-999.0,70,0.00,,,0.00,,2017-05-28 18:24:00,
2017-05-28 14:30:00,65.2,55.0,29.94,East,90,2.0,-999.0,70,0.00,,,0.00,,2017-05-28 18:30:00,
2017-05-28 14:35:00,65.6,56.0,29.94,ESE,113,0.0,-999.0,70,0.00,,,0.00,,2017-05-28 18:35:00,
2017-05-28 14:41:00,65.8,56.0,29.94,South,180,0.0,-999.0,70,0.00,,,0.00,,2017-05-28 18:41:00,
2017-05-28 14:47:00,65.6,54.0,29.94,East,90,0.0,-999.0,68,0.00,,,0.00,,2017-05-28 18:47:00,
2017-05-28 14:52:00,65.9,55.0,29.94,ESE,113,1.0,-999.0,69,0.00,,,0.00,,2017-05-28 18:52:00,
2017-05-28 14:58:00,65.9,55.0,29.94,NW,315,1.0,-999.0,69,0.00,,,0.00,,2017-05-28 18:58:00,
2017-05-28 15:03:00,65.9,55.0,29.94,SE,135,1.0,-999.0,68,0.00,,,0.00,,2017-05-28 19:03:00,
2017-05-28 15:09:00,65.9,55.0,29.94,SE,135,0.0,-999.0,68,0.00,,,0.00,,2017-05-28 19:09:00,
2017-05-28 15:14:00,66.1,54.0,29.94,ESE,113,0.0,-999.0,66,0.00,,,0.00,,2017-05-28 19:14:00,
2017-05-28 15:20:00,65.9,55.0,29.94,ESE,113,1.0,-999.0,69,0.00,,,0.00,,2017-05-28 19:20:00,
2017-05-28 15:25:00,66.1,55.0,29.94,NNE,23,2.0,-999.0,68,0.00,,,0.00,,2017-05-28 19:25:00,
2017-05-28 15:31:00,66.4,56.0,29.94,SSE,158,0.0,-999.0,70,0.00,,,0.00,,2017-05-28 19:31:00,
2017-05-28 15:37:00,66.4,55.0,29.94,ESE,113,0.0,-999.0,69,0.00,,,0.00,,2017-05-28 19:37:00,
2017-05-28 15:42:00,65.8,55.0,29.94,SSE,158,0.0,-999.0,69,0.00,,,0.00,,2017-05-28 19:42:00,
2017-05-28 15:48:00,65.9,55.0,29.93,ENE,68,2.0,-999.0,70,0.00,,,0.00,,2017-05-28 19:48:00,
2017-05-28 15:54:00,65.9,56.0,29.93,ESE,113,1.0,-999.0,70,0.00,,,0.00,,2017-05-28 19:54:00,
2017-05-28 15:59:00,65.5,55.0,29.93,ESE,113,1.0,-999.0,70,0.00,,,0.00,,2017-05-28 19:59:00,
2017-05-28 16:05:00,65.8,55.0,29.93,East,90,1.0,-999.0,70,0.00,,,0.00,,2017-05-28 20:05:00,
2017-05-28 16:10:00,65.2,55.0,29.93,East,90,1.0,-999.0,70,0.00,,,0.00,,2017-05-28 20:10:00,
2017-05-28 16:16:00,65.2,56.0,29.93,ESE,113,0.0,-999.0,73,0.00,,,0.00,,2017-05-28 20:16:00,
2017-05-28 16:21:00,65.2,56.0,29.93,ESE,113,0.0,-999.0,74,0.00,,,0.00,,2017-05-28 20:21:00,
2017-05-28 16:27:00,65.0,56.0,29.93,SE,135,0.0,-999.0,74,0.00,,,0.00,,2017-05-28 20:27:00,
2017-05-28 16:32:00,64.9,56.0,29.93,East,90,0.0,-999.0,74,0.00,,,0.00,,2017-05-28 20:32:00,
2017-05-28 16:38:00,64.4,56.0,29.93,WNW,293,0.0,-999.0,75,0.00,,,0.00,,2017-05-28 20:38:00,
2017-05-28 16:44:00,64.4,56.0,29.93,NNW,338,0.0,-999.0,75,0.00,,,0.00,,2017-05-28 20:44:00,
2017-05-28 16:49:00,64.4,56.0,29.93,East,90,0.0,-999.0,75,0.00,,,0.00,,2017-05-28 20:49:00,
2017-05-28 16:55:00,63.9,56.0,29.93,East,90,0.0,-999.0,75,0.00,,,0.00,,2017-05-28 20:55:00,
2017-05-28 17:01:00,63.9,56.0,29.93,ESE,113,0.0,-999.0,75,0.00,,,0.00,,2017-05-28 21:01:00,
2017-05-28 17:06:00,64.6,56.0,29.93,ESE,113,0.0,-999.0,75,0.00,,,0.00,,2017-05-28 21:06:00,
2017-05-28 17:12:00,64.8,56.0,29.93,ESE,113,1.0,-999.0,74,0.00,,,0.00,,2017-05-28 21:12:00,
2017-05-28 17:17:00,64.6,56.0,29.93,ESE,113,0.0,-999.0,75,0.00,,,0.00,,2017-05-28 21:17:00,
2017-05-28 17:23:00,64.6,56.0,29.93,ESE,113,1.0,-999.0,75,0.00,,,0.00,,2017-05-28 21:23:00,
2017-05-28 17:28:00,64.6,56.0,29.93,SSE,158,0.0,-999.0,75,0.00,,,0.00,,2017-05-28 21:28:00,
2017-05-28 17:34:00,64.4,57.0,29.93,SE,135,0.0,-999.0,76,0.00,,,0.00,,2017-05-28 21:34:00,
2017-05-28 17:40:00,64.1,56.0,29.93,ESE,113,0.0,-999.0,75,0.00,,,0.00,,2017-05-28 21:40:00,
2017-05-28 17:45:00,63.6,56.0,29.93,ESE,113,0.0,-999.0,76,0.00,,,0.00,,2017-05-28 21:45:00,
2017-05-28 17:51:00,63.6,56.0,29.93,SW,225,0.0,-999.0,76,0.00,,,0.00,,2017-05-28 21:51:00,
2017-05-28 17:57:00,63.2,56.0,29.93,ESE,113,0.0,-999.0,78,0.00,,,0.00,,2017-05-28 21:57:00,
2017-05-28 18:02:00,63.0,56.0,29.93,SW,225,0.0,-999.0,78,0.00,,,0.00,,2017-05-28 22:02:00,
2017-05-28 18:08:00,63.0,55.0,29.93,ESE,113,0.0,-999.0,76,0.00,,,0.00,,2017-05-28 22:08:00,
2017-05-28 18:13:00,63.0,56.0,29.93,East,90,0.0,-999.0,78,0.00,,,0.00,,2017-05-28 22:13:00,
2017-05-28 18:19:00,63.2,55.0,29.93,NE,45,0.0,-999.0,76,0.00,,,0.00,,2017-05-28 22:19:00,
2017-05-28 18:24:00,63.4,56.0,29.93,SE,135,1.0,-999.0,76,0.00,,,0.00,,2017-05-28 22:24:00,
2017-05-28 18:30:00,63.9,56.0,29.93,ESE,113,1.0,-999.0,76,0.00,,,0.00,,2017-05-28 22:30:00,
2017-05-28 18:35:00,63.6,56.0,29.93,ENE,68,0.0,-999.0,76,0.00,,,0.00,,2017-05-28 22:35:00,
2017-05-28 18:41:00,63.6,55.0,29.93,ESE,113,2.0,-999.0,75,0.00,,,0.00,,2017-05-28 22:41:00,
2017-05-28 18:46:00,63.2,55.0,29.93,SSE,158,0.0,-999.0,76,0.00,,,0.00,,2017-05-28 22:46:00,
2017-05-28 18:51:00,63.2,56.0,29.93,South,180,0.0,-999.0,78,0.00,,,0.00,,2017-05-28 22:51:00,
2017-05-28 18:57:00,63.0,56.0,29.94,East,90,1.0,-999.0,78,0.00,,,0.00,,2017-05-28 22:57:00,
2017-05-28 19:02:00,62.5,55.0,29.93,NNW,338,1.0,-999.0,79,0.00,,,0.00,,2017-05-28 23:02:00,
2017-05-28 19:08:00,62.5,55.0,29.94,ESE,113,1.0,-999.0,79,0.00,,,0.00,,2017-05-28 23:08:00,
2017-05-28 19:13:00,62.2,55.0,29.93,ESE,113,1.0,-999.0,79,0.00,,,0.00,,2017-05-28 23:13:00,
2017-05-28 19:19:00,62.1,55.0,29.94,ESE,113,0.0,-999.0,79,0.00,,,0.00,,2017-05-28 23:19:00,
2017-05-28 19:24:00,61.9,55.0,29.94,SE,135,0.0,-999.0,79,0.00,,,0.00,,2017-05-28 23:24:00,
2017-05-28 19:30:00,61.7,55.0,29.94,South,180,0.0,-999.0,80,0.00,,,0.00,,2017-05-28 23:30:00,
2017-05-28 19:35:00,61.3,55.0,29.94,ESE,113,1.0,-999.0,81,0.00,,,0.00,,2017-05-28 23:35:00,
2017-05-28 19:41:00,61.1,55.0,29.94,ESE,113,0.0,-999.0,81,0.00,,,0.00,,2017-05-28 23:41:00,
2017-05-28 19:47:00,60.7,54.0,29.94,ESE,113,0.0,-999.0,81,0.00,,,0.00,,2017-05-28 23:47:00,
2017-05-28 19:52:00,60.7,54.0,29.94,SE,135,0.0,-999.0,81,0.00,,,0.00,,2017-05-28 23:52:00,
2017-05-28 19:58:00,60.3,54.0,29.94,SE,135,0.0,-999.0,81,0.00,,,0.00,,2017-05-28 23:58:00,
2017-05-28 20:03:00,60.2,54.0,29.94,SE,135,0.0,-999.0,81,0.00,,,0.00,,2017-05-29 00:03:00,
2017-05-28 20:09:00,60.0,54.0,29.94,SE,135,0.0,-999.0,81,0.00,,,0.00,,2017-05-29 00:09:00,
2017-05-28 20:14:00,59.9,54.0,29.94,SE,135,0.0,-999.0,83,0.00,,,0.00,,2017-05-29 00:14:00,
2017-05-28 20:20:00,59.7,54.0,29.94,ENE,68,0.0,-999.0,83,0.00,,,0.00,,2017-05-29 00:20:00,